TimeMST,TemperatureF,Dew PointF,Humidity,Sea Level PressureIn,VisibilityMPH,Wind Direction,Wind SpeedMPH,Gust SpeedMPH,PrecipitationIn,Events,Conditions,WindDirDegrees,DateUTC
12:51 AM,28.0,25.0,88,29.82,10.0,SSE,4.6,-,N/A,,Clear,160,2013-03-09 07:51:00
2:05 AM,26.6,24.8,93,29.79,2.5,Calm,Calm,-,N/A,,Clear,0,2013-03-09 09:05:00
2:18 AM,26.6,24.8,93,29.79,1.8,Calm,Calm,-,N/A,,Partly Cloudy,0,2013-03-09 09:18:00
2:24 AM,26.6,24.8,93,29.80,4.0,Calm,Calm,-,N/A,,Clear,0,2013-03-09 09:24:00
2:51 AM,28.0,26.1,92,29.83,6.0,Calm,Calm,-,N/A,,Overcast,0,2013-03-09 09:51:00
3:51 AM,25.0,23.0,92,29.84,3.0,Calm,Calm,-,N/A,,Clear,0,2013-03-09 10:51:00
5:51 AM,26.1,24.1,92,29.88,10.0,South,4.6,-,N/A,,Clear,170,2013-03-09 12:51:00
6:51 AM,27.0,24.1,89,29.91,10.0,Calm,Calm,-,N/A,,Clear,0,2013-03-09 13:51:00
7:51 AM,26.1,23.0,88,29.94,10.0,SSE,3.5,-,N/A,,Clear,150,2013-03-09 14:51:00
8:51 AM,26.1,24.1,92,29.98,10.0,West,4.6,-,N/A,,Clear,260,2013-03-09 15:51:00
9:51 AM,35.1,25.0,67,29.98,10.0,Calm,Calm,-,N/A,,Clear,0,2013-03-09 16:51:00
10:51 AM,36.0,25.0,64,29.99,10.0,North,9.2,-,N/A,,Clear,350,2013-03-09 17:51:00
11:51 AM,37.0,25.0,62,30.01,10.0,North,12.7,-,N/A,,Clear,10,2013-03-09 18:51:00
12:51 PM,37.9,25.0,60,30.04,10.0,North,16.1,-,N/A,,Clear,350,2013-03-09 19:51:00
1:51 PM,37.9,24.1,57,30.05,10.0,North,20.7,-,N/A,,Clear,360,2013-03-09 20:51:00
2:51 PM,39.0,23.0,53,30.07,10.0,North,21.9,-,N/A,,Clear,10,2013-03-09 21:51:00
3:51 PM,37.9,23.0,55,30.11,10.0,North,21.9,-,N/A,,Clear,360,2013-03-09 22:51:00
4:51 PM,37.0,23.0,57,30.13,10.0,North,15.0,-,N/A,,Clear,360,2013-03-09 23:51:00
5:51 PM,36.0,23.0,59,30.16,10.0,North,12.7,-,N/A,,Clear,360,2013-03-10 00:51:00
6:51 PM,34.0,19.9,56,30.19,10.0,North,9.2,-,N/A,,Clear,350,2013-03-10 01:51:00
7:51 PM,34.0,21.0,59,30.23,10.0,NNW,18.4,-,N/A,,Clear,340,2013-03-10 02:51:00
8:51 PM,32.0,19.9,61,30.27,10.0,Calm,Calm,-,N/A,,Clear,0,2013-03-10 03:51:00
9:51 PM,33.1,18.0,54,30.27,10.0,Calm,Calm,-,N/A,,Clear,0,2013-03-10 04:51:00
10:51 PM,27.0,19.0,72,30.29,10.0,South,6.9,-,N/A,,Clear,170,2013-03-10 05:51:00
11:51 PM,28.9,19.0,67,30.30,10.0,SSE,5.8,-,N/A,,Clear,160,2013-03-10 06:51:00